Location: Chuathbaluk
(61.5726°N, 159.2454°W)
Time: 04:17:47
(UTC+00:00)

Transit 4A - Pass Details

Date: 01 December 2020
Orbit: 864 x 980 km, 66.8° (Epoch: 26 January)

Event Time Altitude Azimuth Distance (km) Brightness Sun altitude
Rises 18:31:42 0° 205° (SSW) 3,650 11.2 -5.7°
Reaches altitude 10° 18:34:19 10° 200° (SSW) 2,716 10.6 -5.4°
Maximum altitude 18:40:25 50° 127° (SE) 1,234 9.2 -4.9°
Drops below altitude 10° 18:46:34 10° 55° (NE) 2,742 10.6 -4.3°
Sets 18:49:12 0° 50° (NE) 3,688 11.2 -4.1°
